Simultaneous Nadir Overpasses (SNOs) Predictions

Prediction of SNOs between FY3D and NOAA-19 Satellite Orbit:

Table of predicted SNOs for the next 14.0 days since TLE Epoch: 11/12/2022
Index Date (FY3D) Time (FY3D) Lat,Lon (FY3D) SZA (FY3D ) Date (NOAA-19) Time (NOAA-19) Lat,Lon (NOAA-19) SZA (NOAA-19 ) Distance(km) Time Diff (sec)
1 11/15/2022 21:51:39 -77.07, 18.66 84.18 11/15/2022 21:50:26 -77.06, 18.64 84.18 1.41 73
2 11/15/2022 22:42:26 77.07,-174.04 95.83 11/15/2022 22:41:27 77.07,-174.07 95.84 0.80 59
3 11/15/2022 23:33:11 -77.08, -6.76 84.15 11/15/2022 23:32:25 -77.09, -6.74 84.14 0.82 46
4 11/16/2022 00:23:58 77.08, 160.53 95.86 11/16/2022 00:23:26 77.09, 160.55 95.88 1.36 32
5 11/16/2022 01:14:43 -77.09, -32.19 84.12 11/16/2022 01:14:24 -77.11, -32.11 84.10 2.96 19
6 11/16/2022 02:05:30 77.09, 135.11 95.89 11/16/2022 02:05:25 77.12, 135.17 95.92 3.43 5
7 11/16/2022 02:56:15 -77.10, -57.61 84.10 11/16/2022 02:56:24 -77.10, -57.68 84.10 1.71 9
8 11/16/2022 03:47:02 77.10, 109.68 95.92 11/16/2022 03:47:25 77.10, 109.61 95.92 1.93 23
9 11/16/2022 04:37:47 -77.11, -83.03 84.07 11/16/2022 04:38:23 -77.12, -83.05 84.06 1.43 36
10 11/16/2022 05:28:34 77.11, 84.26 95.95 11/16/2022 05:29:24 77.13, 84.23 95.96 2.02 50
11 11/16/2022 06:19:19 -77.12,-108.46 84.04 11/16/2022 06:20:22 -77.15,-108.43 84.02 3.25 63
12 11/16/2022 07:10:09 77.25, 58.27 96.13 11/16/2022 07:11:21 77.24, 59.24 96.07 23.71 72



Historial Predications of SNOs between FY3D and NOAA-19
